EHI
0 0 0 0 0 0 0 0 0 0 0 0 0 0 0 0 0 0 0 0 0 0 0 0 0 0 0 0 0 0 0 1 2 2 1 0 1 1 1 0 0 0 0 0
0 0 0 0 0 0 0 0 0 0 0 0 0 0 0 0 0 0 0 0 0 0 0 0 0 0 0 0 0 0 0 0 1 1 0 0 0 0 0 0 0 0 0 0
0 0 0 0 0 0 0 0 0 0 0 0 0 0 0 0 0 0 0 0 0 0 0 0 0 0 0 0 0 0 0 0 0 0 0 0 0 0 0 0 0 0 0 0
0 0 0 0 0 0 0 0 0 0 0 0 0 0 0 0 0 0 0 0 0 0 0 0 0 0 0 0 0 0 0 0 0 0 0 0 0 0 0 0 0 0 0 0
0 0 0 0 0 0 0 0 0 0 0 0 0 0 0 0 0 0 0 0 0 0 0 0 0 0 0 0 0 0 0 0 0 0 0 0 0 0 0 0 0 0 0 0
0 0 0 0 0 0 0 0 0 0 0 0 0 0 0 0 0 0 0 0 0 0 0 0 0 0 0 0 0 0 0 0 0 0 0 0 0 0 0 0 0 0 0 0
0 0 0 0 0 0 0 0 0 0 0 0 0 0 0 0 0 0 0 0 0 0 0 0 0 0 0 0 0 0 0 0 0 0 0 0 0 0 0 0 0 0 0 0
0 0 0 0 0 0 0 0 0 0 0 0 0 0 0 0 0 0 0 0 0 0 0 0 0 0 0 0 0 0 0 0 0 0 0 0 0 0 0 0 0 0 0 0
0 0 0 0 0 0 0 0 0 0 0 0 0 0 0 0 0 0 0 0 0 0 0 0 0 0 0 0 0 0 0 0 0 0 0 0 0 0 0 0 0 0 0 0
0 0 0 0 0 0 0 0 0 0 0 0 0 0 0 0 0 0 0 0 0 0 0 0 0 0 0 0 0 0 0 0 0 0 0 0 0 0 0 0 0 0 0 0
0 0 0 0 0 0 0 0 0 0 0 0 0 0 0 0 0 0 0 0 0 0 0 0 0 0 0 0 0 0 0 0 0 0 0 0 0 0 0 0 0 0 0 0
0 0 0 0 0 0 0 0 0 0 0 0 0 0 0 0 0 0 0 0 0 0 0 0 0 0 0 0 0 0 0 0 0 0 0 0 0 0 0 0 0 0 0 0
0 0 0 0 0 0 0 0 0 0 0 0 0 0 0 0 0 0 0 0 0 0 0 0 0 0 0 0 0 0 0 0 0 0 0 0 0 0 0 0 0 0 0 0
0 0 0 0 0 0 0 0 0 0 0 0 0 0 0 0 0 0 0 0 0 0 0 0 0 0 0 0 0 0 0 0 0 0 0 0 0 0 0 0 0 0 0 0
0 0 0 0 0 0 0 0 0 0 0 0 0 0 0 0 0 0 0 0 0 0 0 0 0 0 0 0 0 0 0 0 0 0 0 0 0 0 0 0 0 0 0 0
0 0 0 0 0 0 0 0 0 0 0 0 0 0 0 0 0 0 0 0 0 0 0 0 0 0 0 0 0 0 0 0 0 0 0 0 0 0 0 0 0 0 0 0
0 0 0 0 0 0 0 0 0 0 0 0 0 0 0 0 0 0 0 0 0 0 0 0 0 0 0 0 0 0 0 0 0 0 0 0 0 0 0 0 0 0 0 0
0 0 0 0 0 0 0 0 0 0 0 0 0 0 0 0 0 0 0 0 0 0 0 0 0 0 0 0 0 0 0 0 0 0 0 0 0 0 0 0 0 0 0 0
0 0 0 0 0 0 0 0 0 0 0 0 0 0 0 0 0 0 0 0 0 0 0 0 0 0 0 0 0 0 0 0 0 0 0 0 0 0 0 0 0 0 0 0
0 0 0 0 0 0 0 0 0 0 0 0 0 0 0 0 0 0 0 0 0 0 0 0 0 0 0 0 0 0 0 0 0 0 0 0 0 0 0 0 0 0 0 0
0 0 0 0 0 0 0 0 0 0 0 0 0 0 0 0 0 0 0 0 0 0 0 0 0 0 0 0 0 0 0 0 0 0 0 0 0 0 0 0 0 0 0 0
0 0 0 0 0 0 0 0 0 0 0 0 0 0 0 0 0 0 0 0 0 0 0 0 0 0 0 0 0 0 0 0 0 0 0 0 0 0 0 0 0 0 0 0
0 0 0 0 0 0 0 0 0 0 0 0 0 0 0 0 0 0 0 0 0 0 0 0 0 0 0 0 0 0 0 0 0 0 0 0 0 0 0 0 0 0 0 0
0 0 0 0 0 0 0 0 0 0 0 0 0 0 0 0 0 0 0 0 0 0 0 0 0 0 0 0 0 0 0 0 0 0 0 0 0 0 0 0 0 0 0 0
0 0 0 0 0 0 0 0 0 0 0 0 0 0 0 0 0 0 0 0 0 0 0 0 0 0 0 0 0 0 0 0 0 0 0 0 0 0 0 0 0 0 0 0
0 0 0 0 0 0 0 0 0 0 0 0 0 0 0 0 0 0 0 0 0 0 0 0 0 0 0 0 0 0 0 0 0 0 0 0 0 0 0 0 0 0 0 0
Wind_Speed
3 4 6 7 8 8 8 8 9 9 6 6 9 11 9 6 7 7 7 6 6 6 4 4 5 5 5 5 5 5 5 4 4 4 4 4 4 3 3 3 4 4 3 3
3 7 8 7 7 7 8 9 9 7 5 6 9 12 10 9 9 9 8 7 5 4 3 3 4 4 4 5 5 5 5 5 5 4 4 4 4 3 3 3 3 4 4 4
7 4 5 6 7 7 8 8 7 7 7 7 8 10 9 7 7 7 6 5 4 4 3 3 4 4 4 4 5 5 5 5 5 4 3 3 3 2 2 3 3 3 4 4
7 6 5 5 7 7 8 6 7 6 5 5 3 6 6 6 6 6 5 3 3 3 3 2 3 3 3 4 4 4 5 5 5 5 5 6 5 4 4 4 3 3 4 4
5 3 5 6 6 6 4 5 6 6 6 7 5 6 6 6 6 5 4 2 2 2 3 3 3 3 3 3 3 4 4 4 5 5 6 5 4 3 3 4 4 4 3 4
7 4 4 4 3 3 3 3 4 4 3 6 7 6 6 3 4 3 2 2 2 2 2 3 3 3 2 2 2 3 4 4 4 5 6 5 5 4 4 5 5 4 2 2
4 5 3 2 2 2 1 0 1 1 3 6 4 5 5 2 2 2 2 2 2 2 2 3 3 2 3 3 2 3 4 4 4 5 5 5 5 5 5 5 5 4 3 2
3 4 4 3 3 2 4 3 3 3 3 3 2 5 3 0 1 2 3 2 2 2 2 3 2 2 2 3 3 3 4 4 4 5 5 5 5 4 3 4 4 4 4 3
3 3 1 1 2 3 2 3 2 2 3 3 4 3 3 1 2 2 2 2 2 2 2 3 2 2 2 3 3 3 3 3 4 4 4 4 5 4 4 4 3 3 3 3
2 4 3 1 1 3 3 1 1 2 2 4 4 4 3 0 1 1 1 2 2 2 2 2 2 2 2 2 2 3 3 3 3 4 3 3 4 4 4 4 4 4 4 4
2 2 3 2 4 3 2 2 2 3 3 3 3 2 2 1 1 1 1 1 1 1 2 2 2 1 1 1 2 2 3 2 3 4 3 3 4 4 4 4 4 4 4 4
2 1 3 4 3 2 3 3 3 2 4 3 3 4 2 1 2 2 1 0 1 1 1 1 1 1 1 1 1 2 2 3 3 3 4 4 3 3 4 4 4 4 4 4
1 1 2 3 2 1 2 3 3 3 3 4 4 5 1 2 2 2 1 1 0 1 1 1 1 0 0 1 1 2 2 3 3 3 3 3 3 3 4 4 4 4 4 3
2 2 4 5 4 3 4 5 4 3 4 5 7 7 5 3 3 3 3 2 1 1 1 1 0 0 1 1 1 2 2 2 3 3 3 3 4 3 3 3 3 4 4 4
0 3 4 6 8 5 6 7 8 8 8 7 7 8 7 5 4 3 3 3 2 1 1 1 1 1 1 1 1 2 2 2 2 3 3 3 3 3 3 3 3 3 3 4
1 3 3 6 7 7 9 9 9 9 9 10 10 11 6 3 2 2 3 2 2 2 2 1 1 1 1 1 1 1 2 2 2 3 3 2 2 3 3 3 3 3 3 3
2 2 3 5 4 5 8 9 10 9 9 8 10 7 2 3 3 3 3 2 1 2 3 2 2 1 1 1 2 1 2 2 2 3 3 3 3 3 3 3 3 4 4 3
4 4 3 3 2 7 7 3 6 8 8 6 5 3 2 3 4 3 2 1 2 2 2 2 1 1 1 1 1 1 1 2 2 2 2 3 3 3 3 3 4 3 3 4
6 5 3 3 5 8 5 1 1 3 7 5 5 4 3 2 3 2 1 0 1 2 2 2 2 1 1 1 2 1 1 2 2 2 3 3 3 3 3 4 4 3 3 3
4 4 4 4 5 6 3 0 0 1 5 2 3 4 2 0 2 3 1 2 2 2 1 2 2 1 1 1 2 2 2 2 3 3 3 2 2 3 4 4 3 3 3 3
3 4 6 6 6 7 1 1 1 2 4 3 2 2 2 3 3 2 2 2 2 2 2 2 1 1 1 1 2 2 2 3 2 2 2 2 2 3 3 3 3 3 3 3
6 5 6 5 6 7 1 1 3 4 2 3 3 3 3 3 2 2 2 2 2 2 2 2 1 1 1 0 1 2 2 2 2 2 2 2 2 2 2 3 3 3 3 3
6 6 4 6 6 2 2 3 3 2 3 4 4 4 3 3 3 3 2 2 2 2 2 2 1 1 1 1 1 2 2 2 2 2 2 2 2 2 3 3 4 3 3 3
3 2 3 5 6 4 4 3 3 3 3 4 3 4 3 3 3 3 2 2 2 2 2 2 1 1 2 1 1 1 1 1 2 2 2 2 2 2 2 2 3 3 3 3
4 3 4 7 6 5 3 3 3 3 3 3 3 3 3 3 3 3 3 3 2 2 2 2 2 2 2 1 1 1 1 1 2 2 2 2 2 2 2 2 2 3 3 4
5 5 6 7 5 4 4 3 3 3 3 3 4 4 4 3 4 3 3 3 2 2 2 2 2 2 2 1 2 1 1 2 2 2 2 1 2 2 2 2 1 1 2 4
Wind_Direction
205 224 229 233 233 256 282 280 276 276 283 279 266 265 259 247 248 246 242 239 227 220 210 183 167 165 157 156 162 163 164 165 161 160 163 162 167 161 151 150 147 150 149 140
229 238 246 254 256 261 268 272 277 283 290 288 278 271 263 245 241 237 236 235 230 223 197 166 159 158 160 163 165 163 168 174 172 169 169 166 158 155 149 145 146 149 148 146
235 255 254 254 258 260 261 259 271 283 304 277 277 274 248 245 239 241 235 228 220 212 201 178 168 165 165 171 172 172 168 176 173 163 147 145 131 127 143 155 157 156 153 153
252 259 260 252 256 258 262 270 275 281 288 272 253 279 252 230 235 233 225 218 209 200 177 175 161 153 166 171 167 166 168 178 174 167 164 170 170 171 173 165 161 158 159 158
265 268 263 254 259 268 266 291 281 269 264 277 253 254 263 208 224 221 206 198 179 167 166 172 159 149 152 152 158 165 165 169 169 171 169 171 171 164 148 154 158 161 165 166
267 281 270 269 282 281 298 306 290 261 244 256 234 228 266 226 227 212 185 165 146 129 135 144 139 128 128 132 152 161 167 170 172 175 171 172 174 165 159 163 165 163 160 169
268 249 242 266 272 252 258 246 312 255 221 242 228 225 249 241 175 152 133 123 119 112 115 119 120 126 139 146 165 178 176 175 177 179 176 178 175 175 175 170 168 165 167 178
265 260 204 225 247 241 223 209 216 237 243 284 278 237 251 239 85 97 106 108 118 115 119 125 133 137 146 154 165 180 181 179 180 178 175 177 177 180 178 172 169 172 175 178
272 277 286 258 284 265 231 226 255 282 289 276 249 247 262 190 96 77 99 124 132 124 120 136 139 140 149 155 165 177 171 171 177 172 169 177 176 178 174 170 165 164 165 167
303 285 273 227 257 266 268 289 139 209 243 258 248 243 255 265 143 84 114 129 125 116 117 124 144 149 156 159 163 167 172 180 175 165 170 174 173 175 171 162 169 168 167 167
302 265 267 214 209 217 220 250 234 242 251 253 269 265 3 85 92 107 95 119 137 133 136 131 128 143 146 141 151 166 176 180 173 169 169 172 175 171 165 165 169 170 174 172
283 263 266 258 251 266 243 223 205 220 256 248 266 268 359 72 89 73 41 120 136 122 115 117 113 116 128 146 155 172 182 183 181 171 171 175 171 164 164 166 167 167 172 174
296 213 280 290 270 265 260 247 238 247 264 244 241 258 311 35 22 15 24 360 69 132 121 113 93 102 160 172 171 178 181 176 173 169 169 168 168 166 166 167 166 167 170 173
311 228 222 245 271 263 260 252 241 220 235 252 244 262 278 300 307 320 327 330 340 134 157 174 167 266 247 205 195 184 184 166 163 162 166 172 174 171 171 170 168 169 168 175
343 250 253 272 285 280 266 253 241 234 236 244 265 269 273 277 279 293 309 322 327 304 261 222 220 246 253 260 215 180 173 167 158 160 167 179 171 160 162 168 173 172 174 182
262 266 277 271 272 275 268 252 244 247 249 254 267 271 280 297 313 307 308 311 314 306 300 278 257 246 234 238 209 181 179 177 164 166 175 176 164 163 168 176 176 173 178 177
226 237 263 267 284 302 264 235 228 236 236 235 245 257 319 323 308 288 282 282 288 294 295 281 261 239 230 223 196 193 191 166 163 171 176 181 176 176 180 177 174 182 183 172
211 228 240 267 293 249 244 218 215 234 246 235 249 277 273 268 279 274 245 226 273 285 291 289 278 268 238 196 181 173 163 157 160 173 184 188 183 183 177 178 184 188 181 183
214 205 227 230 249 267 264 250 223 244 266 238 243 267 286 316 306 277 273 325 250 271 282 279 271 253 231 199 169 157 169 163 167 185 195 196 189 185 180 187 191 188 186 194
217 203 217 226 243 249 253 186 358 350 276 280 249 257 248 269 271 265 326 350 332 335 332 314 297 259 221 208 159 163 189 183 194 201 203 198 191 186 190 197 198 193 195 199
192 212 220 230 244 260 270 18 57 214 262 331 305 282 256 220 240 273 326 333 334 333 327 317 301 287 259 216 167 182 198 204 205 194 196 201 197 196 195 197 203 190 194 191
190 201 210 213 232 250 193 144 206 245 309 320 315 304 291 278 292 310 311 306 309 319 320 322 313 304 302 222 174 203 224 204 179 181 199 213 209 207 197 191 202 195 189 190
204 204 207 211 226 254 201 237 258 299 304 306 307 304 291 290 289 293 294 294 298 304 310 323 310 300 300 255 192 216 238 189 174 180 203 217 214 208 201 198 202 196 190 192
238 228 244 260 262 267 262 273 281 289 293 304 304 299 292 284 284 287 283 284 287 291 299 305 297 276 281 279 239 224 232 185 171 191 208 209 205 207 206 205 205 198 194 196
234 212 244 261 274 289 267 272 286 291 304 311 315 307 292 280 278 279 280 276 280 289 292 289 280 269 268 278 263 239 213 177 191 207 211 210 209 202 205 211 212 211 210 202
215 214 222 243 258 258 275 281 281 291 291 295 305 306 298 280 278 282 277 275 277 282 292 296 295 283 272 267 266 244 200 183 196 216 219 218 211 206 201 205 224 228 221 220